Wind_Speed
67 69 67 62 66 66 58 56 52 46 43 40 38 34 28 25 21 19 19 20 19 24 24 25 29 32 34 36 40 44 43 38 43 48 54 58 63 67 70 73 74 71 64 52
66 65 63 59 60 62 58 56 52 47 43 41 39 35 29 23 21 21 21 19 21 23 20 24 28 32 33 35 38 42 38 33 41 48 50 55 61 65 66 70 73 72 69 61
64 63 60 57 57 58 56 49 49 45 43 41 40 35 31 23 21 21 22 21 22 22 21 23 27 30 32 34 37 38 35 36 42 45 51 54 56 59 64 66 69 72 70 64
66 61 61 56 56 56 53 49 49 46 38 38 38 36 34 24 22 22 22 24 23 25 22 25 28 31 31 32 33 36 31 39 38 43 47 51 57 58 61 64 65 67 70 68
63 61 60 57 55 56 53 49 44 43 40 38 36 35 35 24 24 25 24 25 25 27 26 26 28 32 30 31 31 35 32 33 37 40 44 48 53 58 59 62 65 69 66 68
65 63 61 59 55 56 54 48 41 39 39 38 37 35 35 28 25 26 26 25 25 28 30 30 30 32 31 30 29 33 28 28 33 33 38 43 48 54 58 59 62 64 67 67
66 63 61 59 57 56 53 46 37 38 40 37 35 34 35 33 26 25 26 28 28 30 30 31 31 32 33 31 29 30 27 26 28 32 37 43 48 51 53 57 60 61 64 65
63 64 62 60 59 58 55 47 40 37 40 37 36 35 33 33 27 24 25 29 27 28 31 31 33 33 35 35 31 32 30 24 27 29 38 45 47 47 49 52 57 60 60 61
60 61 62 59 59 58 58 51 42 38 38 35 37 36 34 32 31 25 26 30 27 29 30 33 34 32 34 34 32 33 34 31 29 33 37 38 41 42 45 48 51 56 58 61
64 59 59 61 60 58 57 55 47 39 37 33 36 37 35 33 33 31 28 33 32 31 32 35 36 34 34 34 32 33 35 37 31 35 37 39 40 43 46 49 51 54 57 58
66 63 61 59 59 58 55 54 50 42 37 32 35 36 36 34 34 35 31 33 35 36 34 35 37 34 34 35 34 33 35 37 37 37 40 37 37 42 46 50 53 54 56 58
71 68 65 59 59 57 55 53 50 46 41 35 34 36 37 35 35 36 37 33 36 41 39 38 37 35 34 34 33 35 36 39 42 41 41 40 43 46 47 49 51 53 55 58
72 72 65 60 58 57 55 53 49 48 46 41 35 36 38 38 37 38 38 37 35 36 39 37 38 35 35 35 35 35 37 38 43 44 43 44 46 49 51 50 49 52 53 58
75 73 68 64 57 55 54 53 50 47 47 42 41 37 39 39 39 38 38 38 40 38 37 40 40 39 36 38 36 36 37 40 43 46 45 47 48 54 55 52 50 51 55 56
84 81 71 66 59 53 53 52 50 46 46 44 42 42 43 39 39 40 38 37 40 41 40 40 42 43 39 41 40 39 40 40 42 44 46 45 48 50 52 51 49 50 54 58
92 88 81 71 64 57 48 48 51 48 44 45 45 44 47 40 40 41 40 37 37 38 42 42 43 45 45 44 44 44 43 43 43 44 44 43 44 47 49 47 49 51 54 59
94 89 85 80 73 64 56 45 45 49 50 45 45 45 51 42 40 42 42 41 39 38 42 46 43 44 46 48 46 46 45 45 46 47 48 50 48 49 50 49 52 55 57 60
99 95 88 82 75 69 64 52 46 47 50 50 46 51 49 47 44 41 42 42 42 41 43 45 47 48 46 49 50 51 50 49 50 50 51 50 49 48 51 53 55 58 59 61
99 95 91 88 77 71 66 63 59 55 54 49 51 56 49 50 48 44 43 41 42 43 44 45 48 53 54 50 52 52 54 53 54 54 52 52 52 51 52 54 56 58 61 63
96 96 95 96 82 77 72 66 62 62 61 56 52 55 54 54 54 50 45 43 40 42 46 44 50 56 57 57 59 57 55 52 53 55 56 56 57 56 56 56 58 60 61 65
97 95 98 95 92 84 76 67 62 61 62 61 59 55 53 56 57 56 50 45 38 40 46 44 50 54 56 60 60 60 62 60 60 61 60 58 59 59 60 60 62 64 66 66
103 102 98 95 94 87 77 67 61 58 60 62 61 58 56 59 58 56 54 49 41 39 43 48 47 49 51 57 63 63 65 65 64 64 65 64 64 63 63 62 63 63 65 66
102 104 106 105 94 86 77 68 63 60 57 59 62 62 58 58 62 59 53 49 44 42 45 49 46 47 49 52 56 61 66 68 67 68 68 67 68 68 68 67 67 67 69 70
105 107 108 100 90 81 75 69 63 61 57 58 59 60 58 54 55 59 54 47 47 45 49 48 44 46 48 48 51 57 66 70 68 68 68 67 70 71 71 70 72 72 73 72
107 112 106 96 87 80 73 66 61 58 57 55 57 57 56 53 50 53 50 51 50 51 54 45 42 44 47 50 50 53 60 64 66 68 68 70 70 71 72 74 72 73 73 73
113 105 94 91 83 76 74 69 56 49 50 55 55 51 51 49 44 46 51 51 54 56 46 42 42 43 50 51 52 53 56 59 65 67 68 70 71 72 74 74 74 69 71 73
105 94 89 83 75 69 66 61 52 48 47 49 49 48 43 40 37 46 52 53 53 51 39 40 42 45 50 51 51 51 50 53 59 66 68 70 72 73 76 74 71 68 72 75
Wind_Direction
318 316 316 319 316 318 323 323 321 320 319 316 316 314 324 311 301 290 294 296 299 302 311 317 316 313 319 321 324 326 335 338 340 348 349 348 352 356 358 0 4 3 6 10
320 319 318 318 318 318 321 320 319 319 316 313 314 314 318 307 299 296 295 298 302 305 308 321 317 315 319 322 326 328 335 335 341 346 351 353 354 356 360 0 5 7 3 8
321 321 318 319 317 317 319 320 315 315 312 313 308 307 311 305 294 284 290 298 300 296 305 315 315 314 318 323 326 328 329 332 342 345 349 353 357 358 359 2 7 8 7 6
322 322 319 317 315 316 319 320 316 313 309 309 306 306 301 302 282 282 290 296 294 289 299 309 312 313 317 322 325 325 327 329 343 347 352 357 358 1 359 2 6 9 7 7
322 321 318 316 315 315 317 323 319 308 306 308 305 300 294 299 283 280 288 288 289 286 292 298 306 310 314 321 322 321 321 329 341 347 355 360 360 358 360 1 5 10 10 9
324 323 319 319 316 316 317 323 318 307 307 307 303 299 294 298 292 280 277 285 285 287 290 296 303 307 308 313 315 315 316 322 335 344 351 358 360 358 358 1 3 6 11 11
326 323 320 320 318 317 318 322 323 311 309 303 301 298 291 292 294 280 276 278 284 284 288 294 299 305 306 310 310 310 308 319 327 334 343 347 350 355 358 359 2 4 9 10
328 325 321 320 319 318 318 318 321 315 308 302 301 300 295 292 295 282 274 277 284 284 288 292 297 304 306 309 310 311 308 306 316 323 330 338 347 351 357 358 1 3 6 8
330 329 325 319 317 314 315 316 316 313 309 304 300 302 298 288 283 281 268 266 277 282 283 286 293 300 300 303 304 307 305 304 306 313 323 333 338 348 351 356 359 0 4 7
328 329 329 325 318 313 311 313 312 310 307 305 299 299 300 292 284 279 265 258 265 275 282 282 288 296 296 299 302 307 302 301 302 309 316 325 333 339 343 349 354 358 1 5
326 327 328 326 321 313 309 309 310 305 304 304 299 297 297 291 281 281 274 260 261 268 276 282 283 289 291 298 305 311 303 300 299 299 308 316 322 329 333 341 347 352 356 358
326 326 327 324 324 314 306 306 306 304 301 299 298 295 294 292 284 281 278 269 258 263 271 279 280 284 286 293 299 307 304 303 304 301 300 309 311 320 327 334 341 346 351 353
329 328 328 328 323 317 307 303 303 301 299 299 296 291 293 291 287 281 277 277 269 263 263 269 272 276 280 285 293 298 304 304 303 305 302 303 306 313 320 327 336 343 346 349
328 331 330 328 324 318 307 300 297 297 295 295 294 291 285 287 289 285 281 276 273 267 265 262 268 271 277 281 285 289 295 303 307 306 306 304 306 311 315 323 329 335 339 344
329 331 331 330 328 319 308 298 294 292 291 288 287 287 286 286 285 286 285 278 276 273 267 266 264 267 270 277 280 286 290 293 298 305 308 307 309 311 315 319 323 330 333 336
329 330 331 331 327 324 316 300 292 288 284 281 281 281 281 285 284 283 284 280 280 276 271 267 267 265 268 273 279 283 287 291 295 298 302 307 310 313 316 318 321 325 329 333
325 329 328 328 326 324 320 309 292 286 283 278 275 274 279 280 282 282 281 282 281 277 270 269 269 269 267 272 275 278 282 286 289 292 298 301 305 308 311 315 320 323 325 328
323 325 325 325 324 320 318 312 298 284 276 271 269 269 270 277 275 277 278 280 281 281 274 271 272 272 270 270 271 275 279 285 289 290 294 296 302 306 309 315 318 320 323 324
319 321 321 322 319 317 313 307 301 292 280 271 268 266 265 267 272 272 273 277 279 278 276 274 271 270 272 272 272 274 276 279 285 289 294 298 301 304 308 312 315 318 319 321
316 318 318 319 316 312 310 304 300 293 290 283 272 266 266 266 266 268 270 271 274 277 274 277 272 268 270 272 274 276 277 279 283 287 291 296 299 303 306 309 312 315 317 319
316 316 316 315 313 311 309 306 298 291 285 283 278 274 268 264 265 267 267 268 270 273 274 275 271 271 269 268 272 275 278 280 283 287 290 294 296 299 303 306 309 312 314 318
314 314 313 312 309 311 311 306 299 291 285 282 279 274 269 267 267 265 268 269 268 267 272 273 273 273 273 269 269 272 275 278 280 283 288 292 295 298 301 305 308 310 312 314
311 313 311 309 309 308 309 308 301 294 286 280 278 276 273 268 270 271 271 269 267 266 266 270 275 276 276 273 271 270 271 274 278 279 282 286 291 295 298 302 304 308 310 313
310 310 309 309 308 308 309 305 300 293 288 283 279 277 275 271 268 270 271 269 264 260 262 266 271 276 280 280 276 270 268 272 277 280 284 286 289 293 296 299 302 305 309 310
308 308 310 310 311 307 304 301 297 293 288 282 279 278 277 274 269 267 266 263 260 258 260 267 270 275 278 278 280 278 274 276 278 281 284 287 290 292 295 298 301 305 308 309
307 309 310 308 305 302 301 298 298 291 282 280 280 279 277 277 273 264 258 258 257 260 264 265 268 270 274 277 279 282 282 279 278 280 283 286 290 292 294 297 301 307 308 308
306 309 304 301 302 300 295 296 295 290 285 281 280 281 280 277 269 255 252 258 263 268 263 259 262 265 269 276 281 285 289 284 280 280 283 285 288 292 295 300 304 308 307 308
Height
10555 10546 10537 10530 10516 10506 10504 10496 10490 10483 10477 10472 10468 10464 10461 10457 10454 10451 10450 10449 10447 10446 10444 10441 10438 10434 10430 10425 10419 10412 10406 10399 10388 10379 10366 10352 10339 10322 10304 10287 10269 10251 10238 10228
10544 10536 10528 10520 10509 10501 10494 10487 10481 10475 10469 10464 10460 10457 10456 10452 10449 10447 10445 10443 10442 10440 10439 10436 10432 10428 10424 10419 10414 10406 10401 10396 10387 10377 10367 10354 10335 10322 10307 10290 10272 10257 10239 10228
10535 10526 10518 10510 10501 10493 10486 10481 10474 10468 10462 10457 10452 10450 10448 10445 10442 10440 10438 10437 10435 10434 10432 10430 10427 10423 10418 10413 10407 10401 10393 10388 10381 10370 10361 10351 10340 10323 10309 10294 10278 10261 10246 10236
10524 10517 10509 10501 10492 10484 10477 10472 10465 10460 10455 10449 10445 10441 10439 10438 10435 10433 10432 10430 10429 10428 10425 10422 10419 10416 10411 10406 10401 10395 10389 10381 10375 10367 10357 10345 10333 10323 10309 10295 10280 10265 10250 10236
10516 10508 10500 10493 10483 10475 10467 10463 10457 10451 10446 10442 10437 10434 10430 10430 10428 10426 10425 10423 10422 10420 10418 10416 10413 10409 10405 10400 10395 10390 10386 10380 10371 10361 10353 10343 10332 10321 10312 10296 10283 10268 10254 10241
10506 10498 10491 10484 10475 10467 10458 10453 10448 10442 10438 10433 10429 10424 10421 10420 10419 10418 10417 10416 10414 10413 10411 10408 10406 10402 10399 10396 10391 10386 10382 10375 10369 10364 10354 10345 10334 10322 10309 10298 10285 10272 10257 10244
10497 10489 10482 10475 10467 10459 10451 10445 10440 10433 10427 10424 10420 10416 10412 10409 10410 10410 10409 10408 10406 10405 10403 10401 10398 10395 10391 10388 10384 10379 10375 10371 10364 10357 10350 10344 10334 10323 10312 10299 10288 10274 10259 10248
10489 10480 10472 10464 10458 10450 10443 10437 10431 10424 10418 10414 10410 10406 10403 10400 10400 10400 10400 10400 10399 10397 10395 10393 10390 10387 10383 10379 10374 10370 10367 10365 10360 10355 10347 10338 10329 10323 10312 10301 10289 10278 10266 10254
10480 10472 10464 10456 10449 10441 10434 10428 10422 10414 10409 10405 10400 10397 10394 10391 10390 10391 10391 10391 10390 10389 10387 10385 10382 10380 10377 10372 10366 10362 10358 10356 10353 10347 10342 10338 10329 10321 10312 10302 10291 10279 10266 10253
10470 10461 10454 10447 10439 10431 10423 10418 10414 10406 10399 10396 10391 10387 10384 10381 10379 10379 10379 10380 10380 10380 10378 10376 10374 10371 10368 10366 10362 10358 10351 10346 10345 10339 10334 10330 10322 10314 10307 10298 10288 10277 10265 10253
10459 10451 10442 10434 10428 10421 10413 10407 10403 10398 10389 10386 10381 10377 10375 10371 10369 10368 10368 10370 10369 10369 10368 10367 10364 10363 10359 10356 10352 10349 10345 10340 10337 10333 10328 10324 10317 10310 10302 10293 10283 10273 10263 10251
10447 10439 10429 10421 10415 10410 10403 10396 10392 10387 10380 10375 10370 10367 10364 10361 10358 10357 10356 10357 10358 10357 10357 10356 10355 10353 10350 10347 10344 10339 10336 10332 10327 10324 10320 10315 10308 10301 10295 10286 10278 10268 10259 10249
10435 10427 10418 10409 10402 10396 10391 10385 10380 10376 10370 10363 10358 10355 10352 10349 10347 10345 10343 10342 10344 10345 10345 10345 10344 10343 10341 10338 10334 10331 10327 10323 10317 10313 10310 10305 10300 10294 10288 10281 10273 10263 10254 10245
10424 10415 10406 10397 10388 10382 10377 10371 10366 10364 10361 10353 10345 10342 10338 10337 10335 10333 10332 10331 10330 10331 10332 10332 10332 10331 10330 10326 10325 10322 10319 10313 10308 10303 10300 10294 10290 10284 10277 10271 10264 10256 10247 10239
10407 10398 10391 10382 10375 10368 10363 10356 10351 10349 10346 10343 10333 10327 10322 10325 10323 10320 10320 10318 10317 10317 10318 10318 10319 10318 10319 10314 10314 10311 10308 10305 10300 10296 10289 10285 10280 10276 10269 10263 10256 10249 10240 10231
10384 10375 10369 10364 10358 10352 10349 10342 10332 10331 10330 10329 10321 10314 10305 10310 10309 10306 10306 10305 10304 10304 10305 10305 10305 10305 10306 10304 10300 10299 10296 10293 10290 10285 10281 10277 10273 10267 10260 10254 10246 10240 10232 10224
10371 10363 10353 10344 10338 10335 10331 10327 10321 10313 10308 10309 10310 10302 10290 10294 10295 10293 10292 10291 10291 10291 10291 10291 10291 10290 10291 10289 10288 10286 10283 10280 10278 10275 10270 10263 10261 10256 10249 10243 10236 10229 10221 10214
10354 10347 10340 10331 10325 10317 10312 10307 10301 10295 10289 10286 10289 10284 10282 10278 10277 10279 10277 10277 10277 10277 10277 10276 10276 10276 10276 10275 10273 10271 10269 10267 10263 10262 10258 10254 10249 10244 10238 10232 10225 10217 10211 10203
10340 10331 10322 10315 10309 10303 10295 10287 10280 10272 10266 10272 10268 10263 10270 10263 10261 10262 10262 10263 10262 10263 10262 10262 10263 10260 10258 10261 10258 10256 10255 10253 10249 10245 10244 10239 10235 10231 10226 10220 10213 10206 10199 10191
10326 10316 10304 10299 10293 10284 10277 10267 10261 10254 10249 10245 10249 10248 10251 10250 10246 10245 10248 10247 10248 10249 10246 10249 10247 10243 10243 10243 10241 10241 10239 10238 10236 10232 10229 10226 10220 10217 10212 10207 10200 10193 10186 10178
10310 10302 10290 10277 10269 10263 10255 10247 10242 10238 10232 10229 10224 10226 10229 10230 10228 10229 10229 10231 10235 10235 10230 10232 10231 10226 10227 10226 10225 10225 10222 10221 10220 10217 10214 10212 10208 10203 10197 10192 10186 10179 10172 10165
10286 10278 10268 10258 10245 10239 10234 10228 10222 10216 10213 10209 10206 10205 10206 10205 10208 10211 10214 10216 10219 10219 10218 10212 10213 10213 10212 10211 10210 10209 10207 10205 10204 10202 10199 10195 10191 10187 10182 10177 10171 10165 10158 10150
10266 10251 10241 10232 10224 10218 10214 10210 10202 10193 10190 10188 10187 10185 10189 10189 10188 10192 10198 10202 10204 10203 10200 10194 10198 10198 10197 10195 10193 10193 10192 10189 10188 10186 10184 10181 10177 10172 10167 10162 10156 10149 10143 10135
10244 10228 10214 10206 10200 10198 10192 10185 10179 10172 10170 10168 10167 10165 10169 10171 10172 10172 10179 10186 10185 10185 10180 10179 10183 10183 10183 10182 10179 10178 10175 10169 10171 10169 10167 10165 10161 10156 10151 10145 10139 10133 10126 10118
10220 10203 10186 10183 10182 10175 10167 10161 10157 10152 10149 10148 10146 10146 10148 10152 10156 10155 10160 10162 10166 10164 10160 10167 10169 10169 10168 10164 10162 10161 10158 10156 10156 10153 10151 10148 10145 10140 10134 10128 10122 10116 10109 10100
10194 10182 10171 10159 10157 10148 10139 10134 10135 10132 10130 10127 10126 10128 10131 10134 10139 10139 10138 10142 10141 10140 10151 10155 10155 10154 10150 10148 10147 10145 10143 10143 10141 10138 10136 10132 10128 10123 10118 10111 10105 10099 10091 10082
10167 10161 10147 10134 10134 10129 10121 10117 10117 10113 10110 10108 10108 10111 10113 10119 10122 10117 10116 10120 10122 10126 10141 10141 10140 10138 10135 10134 10134 10133 10132 10128 10125 10123 10120 10116 10111 10106 10100 10094 10088 10081 10073 10064